Kane - southern half: Past 24 Hour Conditions

 

Nain Airport

02:00 AM AST 28 November 2014
This table is a summary of hourly weather conditions for the past 24 hours.
Date / Time
(AST)
Wind(knots) Conditions Visibility(km) Pressure(kPa) Air tempC) Relative humidity(%) Dew pointC) Wind Chill
28 November 2014
2:00 WNW 15 N/A N/A 101.3 -12 70 -16 -22
1:00 WNW 16 N/A N/A 101.3 -12 70 -16 -22
0:00 WNW 14 N/A N/A 101.3 -12 68 -16 -21
27 November 2014
23:00 WNW 11 gust 19 N/A N/A 101.4 -12 66 -17 -20
22:00 NW 16 gust 23 N/A N/A 101.4 -12 67 -16 -22
21:00 WNW 15 gust 20 N/A N/A 101.4 -12 70 -16 -22
20:00 W 10 Clear 24 101.5 -12 61 -18 -20
19:00 WNW 15 Clear 24 101.5 -12 61 -18 -22
18:00 WNW 11 Clear 24 101.6 -12 55 -19 -20
17:00 W 12 Clear 24 101.6 -12 54 -20 -21
16:00 W 5 Clear 24 101.6 -12 64 -18 -18
15:00 W 12 gust 17 Sunny 24 101.6 -11 55 -18 -20
14:00 W 12 gust 17 Sunny 24 101.7 -11 56 -18 -19
13:00 W 12 Sunny 24 101.7 -10 54 -18 -19
12:00 W 11 Sunny 24 101.7 -11 56 -18 -19
11:00 W 10 Sunny 24 101.8 -11 53 -18 -18
10:00 WNW 13 Sunny 24 101.8 -11 72 -15 -20
9:00 WNW 10 Sunny 24 101.9 -11 68 -16 -19
8:00 WNW 12 Mainly Clear 24 101.9 -11 63 -17 -20
7:00 WNW 18 Clear 24 101.8 -11 63 -17 -22
6:00 WNW 20 gust 26 Mainly Clear 24 101.9 -11 69 -15 -22
5:00 W 16 gust 21 N/A N/A 101.8 -11 68 -16 -20
4:00 W 19 N/A N/A 101.8 -10 69 -15 -21
3:00 WNW 11 gust 18 N/A N/A 101.8 -10 67 -15 -18
2:00 WNW 13 gust 18 N/A N/A 101.8 -10 66 -15 -18
 
Map of Arctic - Eastern Arctic marine weather areas Baker Lake Airport Chesterfield Inlet Airport Coral Harbour Airport Gjoa Haven Airport Kugaaruk Airport Rankin Inlet Airport Shepherd Bay Airport Whale Cove Airport Arctic Bay Brevoort Island Qikiqtarjuaq Airport Cape Dorset Airport Cape Dyer Cape Hooper Clyde Airport Grise Fiord Airport Hall Beach Airport Igloolik Airport Iqaluit Airport Longstaff Bluff Pangnirtung Airport Pond Inlet Airport Repulse Bay Airport Resolute Airport Resolution Island Rowley Island Airport Taloyoak Airport Wager Bay Akulivik Airport Ivujivik Airport Puvirnituq Airport Kangiqsujuaq Airport Kangirsuk Airport Quaqtaq Airport Tasiujaq Airport Cape Kakkiviak Cape Kiglapait Nain Airport Saglek Cape Mercy Kimmirut Airport Aupaluk Airport Salluit Airport Kangiqsualujjuaq Airport Fort Ross
Legend: buoyBuoy land stationLand Station